Regional Weather Roundup
Issued by NWS Jackson, KY

Home | Current Version | Previous Version | Text Only | Print | Product List | Glossary Off
Versions: 1 2 3 4 5 6 7 8 9 10 11 12 13 14 15 16 17 18 19 20 21 22 23 24 25 26 27 28 29 30 31 32 33 34 35 36 37 38 39 40 41 42 43 44 45 46 47 48 49 50

000
ASUS43 KJKL 170205
RWRJKL

EAST KENTUCKY HOURLY WEATHER ROUNDUP
NATIONAL WEATHER SERVICE JACKSON KY
1000 PM EDT WED APR 16 2014

NOTE: "FAIR" INDICATES FEW OR NO CLOUDS BELOW 12,000 FEET WITH
NO SIGNIFICANT WEATHER AND/OR OBSTRUCTIONS TO VISIBILITY.

* THESE REPORTS ARE NOT UNDER NWS QUALITY CONTROL AND MAY NOT
  REPORT WEATHER SUCH AS PRECIPITATION AND FOG.

KYZ079-080-083-085-087-088-110-112-115-119-120-170300
...EASTERN KENTUCKY...

CITY           SKY/WX    TMP DP  RH WIND       PRES   REMARKS
JACKSON        PTCLDY    47  19  33 VRB3      30.24S
LONDON         PTCLDY    50  22  33 CALM      30.23R
SOMERSET*      MOCLDY    46  23  39 CALM      30.24R
MONTICELLO*    PTCLDY    39  31  73 CALM      30.23R
WILLIAMSBURG*  CLEAR     50  23  34 SE5       30.23
MIDDLESBORO*   CLEAR     44  32  62 CALM      30.25R
HARLAN APT*    CLEAR     46  27  46 CALM      30.24R
BLACK MTN*       N/A     43  21  42 S5          N/A
PIKEVILLE APT* CLEAR     46  21  36 NE5       30.25S
BIG SANDY*     PTCLDY    45  23  42 NE6       30.26S
$$

KYZ035-036-041-042-044-050-067-078-099-170300
...CENTRAL KENTUCKY...

CITY           SKY/WX    TMP DP  RH WIND       PRES   REMARKS
MT STERLING*   MOCLDY    45  23  42 E6        30.26R
FLEMING/MASON* PTCLDY    40  24  54 E5        30.28S
DANVILLE*      MOCLDY    45  28  53 SE3       30.23S
LEXINGTON      MOCLDY    47  22  37 E8        30.24R
FRANKFORT      MOCLDY    43  25  49 E6        30.23R
$$

KYZ091>093-OHZ055-061-077-WVZ005-015-034-035-042-170300
...SOUTHERN OHIO/WEST VIRGINIA...

CITY           SKY/WX    TMP DP  RH WIND       PRES   REMARKS
COVINGTON      MOCLDY    44  22  41 E7        30.25S
COLUMBUS       MOCLDY    43  23  45 E7        30.32S
DAYTON         MOCLDY    44  25  47 E13       30.28S
WILMINGTON     MOCLDY    40  25  55 E9        30.28R WCI  34
HUNTINGTON     PTCLDY    44  20  38 E6        30.28S
CHARLESTON     PTCLDY    45  22  40 E8        30.30S
PINEVILLE*     CLEAR     47  26  43 MISG      30.34S
BECKLEY        CLEAR     42  19  39 SE9       30.31R
BLUEFIELD      CLEAR     44  17  33 SE7G20    30.32R
$$

VAZ002-007-008-TNZ017-027-036-066-071-170300
...SOUTHWEST VIRGINIA/EAST TENNESSEE...

CITY           SKY/WX    TMP DP  RH WIND       PRES   REMARKS
WISE*          CLEAR     46  18  31 S5        30.26S
ABINGDON*      CLEAR     47  17  29 E8        30.29R
BRISTOL        PTCLDY    51  17  26 SE13G20   30.28R
KNOXVILLE      PTCLDY    51  30  44 CALM      30.24R
OAK RIDGE      CLEAR     47  33  58 CALM      30.26R
CROSSVILLE     CLEAR     48  28  46 CALM      30.23R
NASHVILLE      MOCLDY    52  31  44 NE6       30.19R
$$

...KEY TO REMARKS...
VSB - VISIBILITY IN MILES
WCI - WIND CHILL INDEX
HX  - HEAT INDEX

$$



USA.gov is the U.S. government's official web portal to all federal, state and local government web resources and services.